sat.trackr.live / text

‹ back to catalog

STARLINK-30135

NORAD 56842 · 2023-079V

PAYLOAD ACTIVE UNKNOWN

§ Identity

Operator
Country
US
Launch date
2023-06-04
Launch site
AFETR
Launch vehicle
Mass (kg)
RCS (m²)

Purposes: comms

External: N2YO · Heavens-Above · Gunter

§ Orbital elements

Epoch: 2026-05-25T02:38:17.692800Z

Period
94.27 min
Inclination
43.0015°
Eccentricity
0.0001305
Mean motion
15.27574667 rev/d
Perigee alt
482.2 km
Apogee alt
484.0 km
Semi-major
6,861.2 km
B*
5.8532e-5
RAAN
35.5520°
Arg perigee
261.4671°
Mean anomaly
98.6033°
Rev number
16,457

§ Raw data

STARLINK-301351 56842U 23079V   26145.10992700  .00001349  00000+0  58532-4 0  99952 56842  43.0015  35.5520 0001305 261.4671  98.6033 15.27574667164578

JSON: /api/v1/satellites/56842 · /tle

For live sub-satellite position, see the globe view (requires WebGL).

§ Visibility from observer

Set your observer location to see the next 7 days of passes ≥ 10°. The values pass through the URL so the page stays shareable.

No JS? Fill the form by hand. The geolocation button needs JavaScript.